[[{"header":{"parameterUnit":"m.s-1","parameterCategory":1,"la1":30.2992,"la2":30.254,"lo1":-89.0895,"lo2":-89.0443,"dy":0.0025,"dx":0.0025,"nx":19,"ny":19,"refTime":"2026-05-23T03:00:00:Z","depth":0,"parameterNumber":2,"parameterNumberName":"U-component_of_WINDS"},"data":[0,0,0,-2.4784,-2.4786,-2.4914,-2.4915,-2.5069,-2.5071,0,0,0,0,0,0,0,0,0,0,0,-2.4741,-2.4742,-2.4783,-2.4786,-2.4914,-2.4915,-2.5069,-2.5071,0,0,0,0,0,0,0,0,0,0,0,-2.474,-2.4741,-2.4742,-2.4787,-2.4914,-2.4915,-2.5069,-2.4975,0,0,0,0,0,0,0,0,0,0,-2.4853,-2.4808,-2.4741,-2.4742,-2.4788,-2.4914,-2.4915,-2.4971,-2.4981,-2.5007,0,-2.503,0,-2.5053,-2.508,-2.5081,0,0,0,-2.479,-2.48,-2.4839,-2.4743,-2.4789,-2.4914,-2.4858,-2.4977,-2.4988,-2.5021,-2.5032,-2.5038,-2.5055,-2.5081,-2.5082,-2.5221,-2.5221,0,0,-2.4783,-2.4761,-2.4831,-2.4846,-2.4826,-2.4854,-2.4862,-2.4984,-2.4995,-2.5033,-2.5042,-2.5058,-2.5082,-2.5083,-2.5221,-2.5221,0,0,0,-2.476,-2.4756,-2.4792,-2.4839,-2.4863,-2.4857,-2.4866,-2.4989,-2.5003,-2.5044,-2.506,-2.5083,-2.5085,-2.522,-2.5221,-2.5221,0,0,0,-2.4756,-2.4743,-2.4789,-2.4777,-2.4861,-2.4928,-2.4869,-2.4995,-2.5009,-2.5059,-2.5083,-2.5086,-2.522,-2.522,-2.522,-2.5225,0,0,0,-2.4734,-2.474,-2.4757,-2.4775,-2.483,-2.4927,-2.4947,-2.4998,-2.5019,-2.5081,-2.5087,-2.5219,-2.522,-2.5219,-2.5223,-2.5253,0,0,0,-2.4704,-2.4757,-2.4757,-2.4822,-2.4828,-2.4927,-2.4947,-2.5021,-2.5075,-2.5084,-2.522,-2.5221,-2.5219,-2.5223,-2.5252,-2.5273,-2.528,0,0,-2.4759,-2.4763,-2.4803,-2.4806,-2.4899,-2.4909,-2.5001,-2.5072,-2.5099,-2.5178,-2.5182,-2.5221,-2.5223,-2.5253,-2.5331,-2.5337,0,0,0,-2.4813,-2.4841,-2.487,-2.492,-2.4975,-2.5022,-2.508,-2.5106,-2.5175,-2.5135,-2.5241,-2.5244,-2.5262,-2.5273,-2.5277,-2.5293,-2.5225,-2.5225,-2.5225,-2.4858,-2.4888,-2.4955,-2.5,-2.5048,-2.5107,-2.5149,-2.5193,-2.5211,-2.5235,-2.5259,-2.5303,-2.5315,-2.5318,-2.5335,-2.5274,-2.5274,-2.5274,-2.5274,-2.4939,-2.4982,-2.5003,-2.5075,-2.5107,-2.5168,-2.5226,-2.5236,-2.5297,-2.5288,-2.5306,-2.5291,-2.5323,-2.5339,-2.5275,-2.5274,-2.5274,-2.5274,-2.5274,-2.497,-2.4996,-2.5026,-2.51,-2.5153,-2.5197,-2.5254,-2.5281,-2.5307,-2.5325,-2.5351,-2.5351,-2.5352,-2.5335,-2.5336,-2.5336,-2.5336,-2.5336,-2.5336,-2.4989,-2.5023,-2.5068,-2.5129,-2.5163,-2.5212,-2.5271,-2.5306,-2.5351,-2.5366,-2.5366,-2.5379,-2.5322,-2.5305,-2.5339,-2.5338,-2.5338,-2.5338,-2.5337,-2.5057,-2.5045,-2.5114,-2.5148,-2.5221,-2.5271,-2.5305,-2.5372,-2.5405,-2.5431,-2.5442,-2.5395,-2.5401,-2.5398,-2.5384,-2.5436,-2.5436,-2.5436,-2.5436,-2.5082,-2.5087,-2.5162,-2.5215,-2.527,-2.5307,-2.5381,-2.5427,-2.5473,-2.5494,-2.5491,-2.5476,-2.5471,-2.548,-2.5475,-2.5463,-2.5533,-2.5533,-2.5534,-2.5124,-2.5136,-2.5194,-2.5238,-2.5297,-2.5346,-2.5417,-2.5475,-2.5525,-2.5538,-2.5511,-2.5507,-2.5483,-2.5474,-2.5485,-2.5476,-2.5454,0,0]},{"header":{"parameterUnit":"m.s-1","parameterCategory":1,"la1":30.2992,"la2":30.254,"lo1":-89.0895,"lo2":-89.0443,"dy":0.0025,"dx":0.0025,"nx":19,"ny":19,"refTime":"2026-05-23T03:00:00:Z","depth":0,"parameterNumber":3,"parameterNumberName":"V-component_of_WINDS"},"data":[0,0,0,3.0889,3.0895,3.1199,3.1201,3.1574,3.1578,0,0,0,0,0,0,0,0,0,0,0,3.0787,3.0789,3.0888,3.0896,3.1199,3.1201,3.1574,3.1578,0,0,0,0,0,0,0,0,0,0,0,3.0786,3.0788,3.0791,3.0897,3.1199,3.1201,3.1573,3.135,0,0,0,0,0,0,0,0,0,0,3.1058,3.095,3.0787,3.0791,3.0898,3.1199,3.1201,3.1339,3.1364,3.1429,0,3.1481,0,3.1535,3.1601,3.1603,0,0,0,3.0906,3.093,3.1022,3.0791,3.0901,3.1198,3.1065,3.1353,3.1381,3.1461,3.1487,3.1501,3.1541,3.1604,3.1605,3.194,3.1941,0,0,3.0889,3.0835,3.1003,3.1039,3.0988,3.1055,3.1074,3.137,3.1395,3.1488,3.151,3.1547,3.1606,3.1609,3.1939,3.1941,0,0,0,3.0834,3.0823,3.0909,3.1024,3.1079,3.1064,3.1086,3.1382,3.1415,3.1514,3.1552,3.1608,3.1612,3.1938,3.194,3.1939,0,0,0,3.0824,3.0791,3.0901,3.0872,3.1073,3.1234,3.1091,3.1394,3.1429,3.155,3.1608,3.1616,3.1937,3.1939,3.1936,3.1947,0,0,0,3.0771,3.0785,3.0824,3.0868,3.0996,3.123,3.128,3.1403,3.1452,3.1603,3.1617,3.1936,3.1939,3.1934,3.1944,3.2019,0,0,0,3.0699,3.0821,3.0823,3.0975,3.0993,3.1227,3.1279,3.1457,3.1586,3.161,3.1937,3.194,3.1933,3.1942,3.2016,3.207,3.2088,0,0,3.0824,3.0834,3.0928,3.0939,3.1157,3.1185,3.1405,3.1577,3.1643,3.1838,3.1847,3.1937,3.1944,3.2018,3.2209,3.2223,0,0,0,3.0949,3.1015,3.1085,3.1204,3.1336,3.145,3.1593,3.1657,3.1825,3.1731,3.1987,3.1993,3.2038,3.2067,3.2079,3.2121,3.1951,3.1951,3.195,3.1047,3.1122,3.1281,3.1392,3.1508,3.1653,3.1755,3.1866,3.191,3.1969,3.2027,3.2134,3.2165,3.2174,3.2218,3.2064,3.2064,3.2064,3.2064,3.1235,3.134,3.1394,3.1567,3.1646,3.1795,3.1941,3.1967,3.2118,3.2096,3.2141,3.2109,3.2187,3.2229,3.2065,3.2064,3.2064,3.2064,3.2064,3.1306,3.1369,3.1443,3.1622,3.1753,3.1864,3.2005,3.2074,3.2141,3.2184,3.2253,3.2253,3.2261,3.2212,3.2213,3.2213,3.2213,3.2214,3.2214,3.135,3.1433,3.1542,3.1692,3.1777,3.1898,3.2047,3.2134,3.2249,3.2288,3.2289,3.2327,3.218,3.2141,3.222,3.2219,3.2218,3.2217,3.2217,3.151,3.1485,3.1652,3.1737,3.1919,3.2044,3.213,3.2302,3.2385,3.2453,3.2483,3.2363,3.238,3.2371,3.2339,3.2465,3.2465,3.2465,3.2465,3.1569,3.1584,3.177,3.1902,3.2039,3.2134,3.2324,3.2441,3.2559,3.2616,3.2608,3.2572,3.256,3.2585,3.2572,3.2543,3.2718,3.2718,3.2718,3.1671,3.1703,3.1849,3.196,3.2107,3.2233,3.2414,3.2566,3.2696,3.273,3.2661,3.2651,3.2594,3.2571,3.2601,3.2579,3.2528,0,0]}]]